Rbgn^[z[y[W
メイン
   新天体発見情報
     Comet P/2019 A2 (ATLAS)
投稿するにはまず登録を

スレッド表示 | 新しいものから 前のトピック | 次のトピック | 下へ
投稿者 スレッド
佐藤裕久
投稿日時: 2019-1-27 13:30
モデレータ
登録日: 2005-6-12
居住地: 日本
投稿: 2676
オンライン
Comet P/2019 A2 (ATLAS)

A. Fitzsimmonsの通報によると、1月4日UT、Haleakalaにある小惑星地球衝突最終警報システム 
Asteroid Terrestrial-impact Last Alert System (ATLAS)の検索プログラムのコース上に0.5-m 
反射望遠鏡の露出から彗星を発見した。4枚の30秒露出でp.a. 275°に15"の尾が見える。
小惑星センターのPCCP webpageに公表後、佐藤英貴氏(東京都文京区, iTelescope 天文台, 0.43-m 
f/6.8 アストログラフ, Mayhill近郊, ニューメキシコ州, 遠隔操作;1月5.20日UT、60秒露出7枚の
スタック, 8" x 10"の強く集光したコマとp.a. 275°の向かって20" の尾がある。7".6の円形範囲
で測定した光度は18.7等であった)らCCD観測者によって彗星状と観測された。

発見位置は次のとおり、

     2019 UT             R.A. (2000) Decl.       Mag.
     Jan.  4.48478    7 42 25.19   +11 40 41.2   18.7
           4.49908    7 42 24.66   +11 40 45.6   18.9
           4.50565    7 42 24.43   +11 40 47.2   18.7
           4.51883    7 42 23.95   +11 40 50.2   18.9

楕円軌道要素と位置推算表は次のとおり、

Orbital elements:
    P/2019 A2 (ATLAS)
Epoch 2018 Nov. 18.0 TT = JDT 2458440.5
T 2018 Dec. 1.21144 TT                                  MPCW
q   3.5542503            (2000.0)            P               Q
n   0.07216773     Peri.  326.08255     -0.27812069     -0.94575553
a   5.7135676      Node   139.33442     +0.92854853     -0.30946041
e   0.3779280      Incl.   14.93239     +0.24585872     +0.09889760
P  13.66
From 83 observations 2018 Dec. 13-2019 Jan. 8, mean residual 0".5.

    P/2019 A2 (ATLAS)
Epoch 2032 June 17.0 TT = JDT 2463400.5
T 2032 July 3.68289 TT                                  MPCW
q   3.5468486            (2000.0)            P               Q
n   0.07239338     Peri.  325.65422     -0.26854714     -0.94840511
a   5.7016887      Node   139.18308     +0.93151228     -0.30024568
e   0.3779302      Incl.   14.94353     +0.24529026     +0.10188364
P  13.61
From 83 observations 2018 Dec. 13-2019 Jan. 8, mean residual 0".5.

    P/2019 A2 (ATLAS)
Epoch 2019 Apr. 27.0 TT = JDT 2458600.5
T 2018 Dec. 1.12650 TT                                  MPCW
q   3.5542008            (2000.0)            P               Q
n   0.07220934     Peri.  326.07087     -0.27789509     -0.94581778
a   5.7113725      Node   139.33229     +0.92862386     -0.30924326
e   0.3776976      Incl.   14.93382     +0.24582932     +0.09898151
P  13.65
From 83 observations 2018 Dec. 13-2019 Jan. 8, mean residual 0".5.

Ephemeris:
    P/2019 A2 (ATLAS)
Date    TT    R. A. (2000) Decl.     Delta      r     Elong.  Phase   m1
2018 12 09    07 53 38.8 +10 25 21   2.7684  3.5545   137.2    10.9  18.2
...
2018 12 24    07 48 23.2 +10 59 22   2.6516  3.5565   153.1     7.2  18.1
...
2019 01 01    07 44 21.6 +11 26 53   2.6125  3.5584   161.4     5.0  18.1
...
2019 01 07    07 40 58.4 +11 51 19   2.5950  3.5602   167.1     3.5  18.1
2019 01 08    07 40 23.3 +11 55 40   2.5932  3.5606   167.9     3.3  18.1
2019 01 09    07 39 48.0 +12 00 05   2.5916  3.5609   168.6     3.1  18.1
...
2019 01 15    07 36 13.6 +12 28 02   2.5884  3.5631   171.0     2.5  18.1
...
2019 01 23    07 31 32.0 +13 08 14   2.6008  3.5665   167.0     3.6  18.1
...
2019 02 07    07 23 59.4 +14 27 44   2.6742  3.5745   151.9     7.5  18.2


この天体は可能性のある彗星として報告され、A. Fitzsimmons(T05)は4枚結合した30秒露出で
P.A. 275°に15"の尾と記述した。彗星状況の他の記述は次のとおり:

Site  Date  UTC    Coma    Tail              Reporter
W96   Jan.  5.1     10"     15"              J.-F. Soulier (40 x 60s)
G40   Jan.  5.1             10"              J.-L. Tuten
H06   Jan.  5.2   8" x 10"  20" in P.A. 275  H. Sato (7 x 60s)
568   Jan.  5.4            >30" in P.A. 280  R. Weryk (60s)
104   Jan.  5.9             15" in P.A. 260  P. Bacci (83 x 20s)
595   Jan.  5.9      8"     30" in P.A. 280  L. Bittesini (10 x 60s)
L01   Jan.  5.9             23" in P.A. 278  K. Korlevic
Q11   Jan.  6.5     ~8"     13" in P.A. 279  H. Sato (10 x 60s)
157   Jan.  6.9             15" in P.A. 280  R. Haver (24 x 90s)
K51   Jan.  7.8            ~30" in P.A. 300  R. Furgoni (12 x 120s)
L27   Jan.  7.9    ~12"    ~25" in P.A. 275  J.-F. Soulier (60 x 60s)
I52   Jan.  8.2   4" x 6"   12" in P.A. 280  A. R. Gibbs (12 x 5s)

(CBET 4595、MPEC 2019-A126)

スレッド表示 | 新しいものから 前のトピック | 次のトピック | トップ

投稿するにはまず登録を
 
© 1999 Tsutomu Seki.